Location: *
(46.4833°N, 7.6667°E)
Time: 03:32:12
(UTC+00:00)

Cosmos 2208 Rocket - Pass Details

Date: 27 February 2020
Orbit: 755 x 805 km, 74.0° (Epoch: 29 March)

Event Time Altitude Azimuth Distance (km) Brightness Sun altitude
Rises 19:06:24 0° 198° (SSW) 3,295 7.4 -20.5°
Reaches altitude 10° 19:08:48 10° 198° (SSW) 2,364 6.6 -20.9°
Maximum altitude 19:14:11 87° 112° (ESE) 799 3.9 -21.8°
Drops below altitude 10° 19:19:33 10° 23° (NNE) 2,350 6.4 -22.7°
Sets 19:21:56 0° 23° (NNE) 3,274 7.2 -23.1°
